Погода в Павловке

Россия / Республика Башкортостан     53°48′45″N   54°00′14″E
темп.,
°C
ветер,
м/с
пор.,
м/с
влажн.,
%
обл.,
%
осадки,
мм/ч
давл.,
гПа
погр.,
м
8 мая, сб
сб823:00+14юв2253100 0.0 101727
02:00+13ююз2254100 0.0 101832
05:00+11ююз2362100 0.0 101830
08:00+13юв006183 0.1 101873
11:00+17ююз1248100 0.1 10171122
14:00+18ююз3342100 0.0 10171148
17:00+17ссз325472 0.8 1017581
20:00+15ююв11605 0.3 101715
9 мая, вс
вс923:00+11ююв11765 0.3 101710
02:00+11юв11720 0.0 101710
05:00+10юв22751 0.0 101710
08:00+13вюв24660 0.0 1017129
11:00+18юв33455 0.0 1016665
14:00+21ююв22365 0.0 10162117
17:00+21ююв233414 0.0 10162293
20:00+19вюв3546100 0.0 1016104
10 мая, пн
пн1023:00+17вюв354496 0.0 101795
02:00+15вюв355541 0.0 101764
05:00+15юв345581 0.0 101883
08:00+16вюв3658100 0.0 1019154
11:00+18ю3449100 0.0 1020346
14:00+20ююв2343100 0.0 1021592
17:00+22юз113699 0.0 1021887
20:00+20с0146100 0.0 102211
11 мая, вт
вт1123:00+17ссв4757100 0.0 1023138
02:00+16св41071100 0.0 1023260
05:00+14с3483100 0.0 102491
08:00+13ссв4586100 0.0 1026331
11:00+16ссв5468100 0.0 1027681
14:00+19с4458100 0.0 10271189
17:00+18ссв555567 0.0 10271198
20:00+15св58470 0.0 1028569
12 мая, ср
ср1223:00+11св410555 0.0 1029249
02:00+9св410585 0.0 1029226
05:00+8св310605 0.0 1029193
08:00+11св5105598 0.0 1029352
11:00+15всв674013 0.0 1029797
14:00+18всв563882 0.0 10281205
17:00+19всв454363 0.0 10271200
20:00+17св36599 0.0 1027179